Theta_e
324 327 326 328 328 326 325 324 323 325 327 325 320 318 324 323 315 318 334 334 327 333 339 340 342 342 340 342 343 344 345 348 350 351 351 350 349 352 357 364 370 371 365 362 360 358 359 359 358 358 357 357 361 362 363 363 361 361 360 354 350 351 351 350 351 350 350 351 351 350 349 349 348 347 346 345 348 349 348 345 343 341 339 338 337 335 332
322 326 327 328 327 325 325 325 326 327 327 327 323 324 329 326 322 330 336 332 333 339 339 341 341 339 342 343 344 344 345 349 351 351 349 347 346 347 346 351 359 362 360 359 358 358 359 359 358 360 359 360 360 359 361 362 362 361 360 353 350 352 350 349 350 352 350 351 351 351 351 350 349 349 348 347 348 348 347 345 344 341 339 338 336 334 332
317 324 326 327 326 325 322 324 328 329 327 327 326 326 330 326 324 331 334 330 333 338 339 342 343 343 345 344 345 347 347 348 351 350 347 346 346 346 346 351 357 358 357 355 356 359 359 358 359 360 361 361 359 359 360 361 361 360 357 352 350 351 349 349 351 351 350 350 350 350 351 350 350 350 349 348 349 349 348 345 343 342 340 338 335 333 331
311 321 324 323 325 324 319 319 325 326 324 324 325 327 328 325 323 324 324 323 332 342 344 346 347 346 345 345 346 349 347 347 349 347 346 348 348 348 351 354 359 358 357 356 356 357 359 360 360 360 361 361 360 360 361 359 359 358 355 352 349 349 350 351 350 350 350 350 347 347 350 350 350 350 349 349 349 349 347 345 344 342 340 337 335 332 329
311 320 322 322 321 315 313 317 324 328 328 327 327 329 336 335 331 328 325 329 342 350 347 346 346 345 345 345 346 348 348 350 351 350 348 346 348 354 356 356 359 359 359 358 359 358 360 362 362 361 362 361 361 361 360 359 359 358 356 355 352 351 352 350 349 348 350 349 346 346 348 348 348 348 347 347 348 348 348 345 344 343 339 336 333 330 329
311 318 323 320 315 309 314 327 333 334 334 331 328 330 338 342 340 336 338 344 349 348 344 344 345 345 346 345 345 347 348 350 356 359 356 352 352 356 358 358 357 359 360 361 360 362 362 363 363 362 361 360 360 359 359 358 359 358 357 357 356 354 353 352 349 346 346 348 347 347 348 347 348 348 346 347 348 348 348 346 344 342 339 336 333 329 326
315 320 320 313 310 315 327 338 336 336 335 335 333 333 339 345 345 344 345 346 346 345 345 344 343 343 345 344 345 347 345 349 357 359 359 361 359 355 356 360 359 360 361 362 363 363 363 362 361 360 360 359 358 358 358 359 359 358 357 357 357 356 355 354 353 349 347 347 347 347 348 348 349 348 347 348 347 347 346 345 344 342 338 335 332 329 327
322 321 315 313 318 328 335 336 336 337 336 335 333 330 337 346 346 344 347 345 345 345 344 344 345 345 345 344 345 345 345 347 350 348 354 360 358 354 353 357 360 361 360 362 365 364 362 361 360 360 359 359 359 359 359 359 359 359 357 357 359 358 356 356 355 355 353 350 350 350 350 350 350 349 349 349 347 346 344 344 345 341 336 334 331 329 329
322 316 313 318 322 326 329 333 338 338 335 338 335 329 333 344 344 343 346 344 344 345 344 344 347 345 347 348 347 345 344 344 344 347 353 353 352 353 350 352 358 361 360 362 364 363 361 361 360 359 359 360 359 359 358 358 359 359 358 358 358 358 358 357 356 356 355 354 354 353 352 350 350 350 349 348 348 346 344 345 343 338 335 334 330 329 329
320 315 314 319 319 320 327 333 337 336 335 336 338 332 332 341 345 345 346 345 345 347 345 345 345 347 349 351 349 347 349 350 348 348 350 349 349 348 347 350 355 356 357 361 362 361 361 360 358 359 359 358 358 358 357 358 359 360 359 359 359 358 358 356 355 354 354 355 355 353 352 351 350 349 348 346 348 346 345 344 340 336 335 332 329 330 329
320 316 315 319 319 322 331 335 338 338 334 335 338 330 327 339 346 345 344 346 347 347 346 344 345 347 350 351 353 352 352 351 351 351 349 345 343 343 345 348 352 356 359 361 360 361 360 358 358 358 357 358 358 357 357 357 358 359 360 360 359 358 357 355 354 353 353 355 356 353 353 352 351 349 347 347 347 346 344 342 337 335 335 331 329 332 329
317 317 315 319 322 326 334 336 335 336 337 337 333 322 325 338 345 342 344 347 347 348 347 346 346 350 353 355 355 355 350 345 346 350 351 344 340 343 345 347 351 357 359 358 358 359 357 357 358 357 356 357 357 357 357 357 357 359 360 359 358 357 356 355 354 353 353 354 354 354 354 354 352 350 349 347 346 344 342 340 336 335 334 331 330 332 331
314 314 313 316 323 330 335 335 335 338 339 333 325 324 336 345 342 341 345 346 346 348 346 345 349 353 352 351 351 350 348 344 343 345 345 342 343 345 346 348 351 353 354 355 356 357 356 356 356 355 356 357 356 357 358 357 358 358 358 358 357 355 355 354 353 353 352 352 353 353 352 352 352 350 348 346 343 341 340 339 336 334 333 330 330 333 333
317 316 315 315 322 332 334 334 337 337 333 329 330 340 349 347 341 343 344 343 345 346 345 346 352 352 348 347 348 346 344 343 342 341 342 343 345 346 349 351 351 351 354 354 354 356 356 356 354 354 357 357 357 357 358 357 357 357 356 357 356 354 355 354 353 353 352 351 353 352 350 351 351 348 345 342 340 339 339 337 333 333 331 330 331 334 334
319 315 315 314 321 334 335 333 338 338 335 338 346 354 355 350 343 341 342 344 346 344 343 348 350 348 345 345 347 345 341 340 341 341 343 343 346 348 349 350 350 352 352 351 352 353 353 353 353 353 356 358 358 358 357 356 355 355 355 356 354 354 354 353 352 351 351 351 352 352 352 352 350 345 341 340 339 337 336 334 333 333 332 332 335 336 335
325 316 319 324 329 338 335 336 343 344 344 348 350 350 355 351 341 339 343 346 345 345 345 346 346 346 346 346 345 344 340 340 343 344 344 345 347 347 348 347 349 351 350 349 351 351 350 350 352 353 355 358 358 358 357 355 354 354 355 354 354 354 353 352 351 351 350 351 351 352 353 352 347 342 340 339 339 337 336 336 336 336 335 335 336 336 335
335 330 336 340 337 336 337 341 346 345 344 344 343 344 348 346 343 347 348 346 346 348 346 344 344 345 345 345 343 342 339 340 343 343 344 347 348 348 349 350 351 350 349 348 349 350 349 349 350 352 354 355 357 358 358 356 354 354 354 353 354 354 353 352 352 350 350 351 351 351 352 350 346 342 340 340 339 338 338 338 338 337 337 337 336 336 336
338 338 342 340 339 339 339 339 342 342 340 342 341 341 344 344 346 351 350 348 347 346 344 343 344 344 341 341 342 340 341 342 342 344 346 349 349 350 351 351 350 349 347 348 348 349 349 348 349 351 352 353 356 356 355 355 354 354 354 354 353 353 353 352 351 351 351 350 350 351 351 348 344 341 340 339 338 338 338 338 338 339 338 337 336 336 336
334 336 342 342 339 339 340 339 340 342 342 341 341 342 344 344 344 347 349 348 346 348 350 348 344 342 342 341 341 341 341 342 343 347 352 352 350 350 351 349 350 349 348 349 349 350 349 348 348 350 350 352 354 354 354 354 354 354 355 354 353 353 353 353 352 352 351 350 350 350 350 347 342 339 339 338 337 339 339 337 337 338 337 336 334 332 333
337 338 344 344 337 336 340 339 339 341 341 339 341 344 345 345 344 345 347 345 345 351 356 351 343 341 341 340 340 339 340 341 345 349 352 352 350 350 350 350 351 351 349 349 350 350 350 349 349 349 351 351 352 354 354 354 354 354 354 353 353 352 352 352 353 352 352 350 350 349 348 347 343 340 339 339 339 339 336 334 334 333 332 331 328 324 327
341 339 342 346 342 340 340 339 338 343 345 343 346 347 347 346 346 345 346 343 342 348 351 347 342 341 340 338 340 340 339 344 349 351 352 351 348 348 349 351 351 351 350 349 349 349 349 349 348 349 351 352 353 354 355 355 354 354 353 353 354 353 353 353 352 352 352 351 350 349 348 347 346 343 341 339 339 339 335 333 333 331 328 326 323 319 323
340 338 342 348 347 345 345 343 338 342 347 349 351 351 347 348 349 347 346 344 344 345 347 343 341 343 342 340 340 341 343 348 351 352 352 350 348 347 349 350 350 350 350 348 348 348 347 348 348 349 351 353 354 355 355 355 355 354 353 353 353 352 352 353 352 352 352 350 350 350 349 348 347 346 342 339 338 338 336 334 334 332 329 325 320 317 322
341 341 344 349 351 353 353 346 339 340 345 348 350 350 347 348 349 349 346 346 347 347 346 342 344 347 348 344 343 345 349 351 352 353 351 350 349 348 349 350 349 348 348 346 346 347 348 348 348 349 351 352 352 353 354 354 355 354 354 353 352 350 350 352 351 351 350 349 349 350 349 349 348 347 344 341 337 335 334 334 335 335 332 328 321 317 320
342 341 341 344 349 352 350 345 341 342 346 349 349 346 346 347 346 345 347 347 348 346 344 345 347 350 351 350 350 352 353 353 351 350 349 350 350 349 348 349 348 347 347 347 346 347 348 348 348 350 351 352 351 352 353 353 354 354 354 353 352 351 350 350 351 350 349 349 350 349 348 349 348 346 344 342 339 336 334 334 336 337 335 331 324 317 316
342 342 343 346 348 347 343 343 344 343 347 353 354 348 345 348 345 343 348 350 347 345 345 345 349 352 353 354 354 354 352 350 349 349 349 350 350 349 348 347 347 347 347 346 346 347 347 347 348 348 349 350 350 351 351 352 353 354 353 353 353 352 351 352 352 350 350 350 350 348 348 349 348 347 345 344 342 340 337 335 336 338 337 333 325 316 313
342 340 342 347 349 346 342 343 344 341 346 352 353 350 350 351 346 342 347 347 343 345 347 347 350 352 354 354 353 351 349 349 349 350 350 350 349 348 347 346 346 347 347 347 347 347 346 346 347 347 347 349 349 350 351 351 352 352 352 353 353 352 351 352 352 352 351 350 348 348 348 348 349 348 347 346 346 344 341 338 336 336 336 334 326 318 312
344 340 343 348 349 345 344 346 345 342 343 347 348 347 347 348 344 342 344 344 342 345 349 350 352 354 353 351 349 348 349 350 350 349 349 348 347 347 346 346 346 346 346 347 347 346 345 345 345 345 346 347 347 349 349 349 350 350 350 350 351 351 350 351 352 353 352 351 349 348 348 349 349 350 348 347 348 347 345 343 340 338 337 335 328 321 315
346 344 347 350 348 345 344 345 345 344 343 343 345 345 348 349 348 344 342 342 344 348 350 351 352 352 349 348 348 350 351 350 349 347 347 347 347 347 346 346 345 345 346 347 346 346 346 345 344 344 345 345 346 346 347 348 349 350 349 349 349 350 349 351 353 353 353 352 351 350 350 349 350 350 349 349 348 348 348 346 345 343 341 336 330 323 317
346 348 349 347 347 347 346 345 347 346 343 343 345 347 348 347 348 343 341 343 345 349 350 351 349 347 346 347 350 351 350 349 347 347 347 347 348 347 346 345 344 344 345 346 345 345 346 345 345 346 345 344 344 344 346 347 347 348 349 350 349 348 349 350 352 352 352 352 352 350 351 349 348 348 348 348 347 347 347 346 346 346 343 336 330 325 319
346 354 357 348 343 345 345 345 347 343 342 346 348 347 347 347 345 342 342 345 346 346 346 347 346 344 345 348 350 349 348 348 347 346 346 348 349 347 346 345 344 344 345 345 346 346 345 343 345 346 345 343 341 341 342 345 346 347 349 349 348 346 346 347 349 350 350 350 350 350 350 350 348 348 348 347 345 346 347 347 346 347 345 338 331 327 324
346 353 356 347 343 344 348 355 357 350 345 347 349 348 347 346 344 344 344 345 346 344 344 345 346 345 346 348 348 346 347 346 346 345 348 349 348 346 346 345 344 344 345 345 345 345 343 342 343 342 338 333 333 335 337 337 339 341 344 347 348 347 345 345 346 348 348 348 349 349 349 350 350 348 348 347 346 345 345 345 344 346 347 341 336 333 331
346 349 349 349 349 349 352 360 360 355 351 349 350 352 353 350 346 344 344 344 344 344 346 349 350 349 349 348 347 347 347 346 345 347 347 347 346 345 345 346 345 345 345 343 341 341 342 341 339 335 330 325 327 331 332 332 333 336 340 342 344 345 344 342 343 345 347 346 346 347 347 347 348 348 347 347 347 347 346 345 344 345 346 344 343 341 337
351 353 353 355 353 351 352 355 355 354 351 346 346 351 353 352 350 349 348 347 346 347 350 352 351 350 349 348 348 348 348 346 346 347 348 348 347 347 346 346 347 345 342 339 337 338 341 340 338 332 327 324 324 327 331 333 334 336 338 338 337 337 338 339 339 341 340 340 342 344 346 345 346 346 346 346 347 347 347 346 345 345 346 345 345 345 342
355 356 354 354 355 354 352 354 358 359 352 343 345 350 349 350 354 353 350 348 348 351 352 352 351 350 349 349 349 349 347 347 348 349 349 348 348 347 346 346 344 343 339 334 332 332 337 341 341 338 333 328 325 325 327 331 335 337 337 336 334 332 332 334 335 335 335 335 337 339 340 342 342 344 345 346 347 346 346 347 345 345 346 345 345 345 343
352 354 349 348 354 358 358 358 359 357 350 345 347 347 347 350 354 353 352 350 352 353 353 353 351 350 348 349 350 348 346 347 348 349 349 348 347 347 347 344 342 340 338 334 329 330 334 338 340 341 339 334 330 328 326 328 333 338 338 335 332 331 330 331 331 331 333 334 334 335 335 337 338 340 343 345 346 344 345 345 345 345 345 345 345 345 343
349 353 350 345 347 352 355 353 350 349 350 349 349 348 349 353 354 353 354 354 353 353 353 352 349 348 348 349 349 347 346 347 347 348 349 348 347 348 348 344 341 340 338 334 330 330 332 334 335 337 337 334 332 330 326 324 329 336 339 334 330 329 329 330 330 330 331 333 333 333 334 335 335 337 339 340 341 342 342 342 343 344 344 344 345 345 344
347 352 354 349 346 346 347 347 347 350 354 357 355 354 356 355 353 353 355 354 353 353 353 350 350 350 350 350 349 347 346 346 347 349 349 348 347 348 347 345 342 340 337 335 332 330 332 336 336 335 334 333 331 330 327 323 326 334 337 334 329 328 328 329 330 330 331 333 332 332 334 335 337 337 337 337 338 340 340 340 341 342 342 343 344 344 345
347 351 355 354 349 348 348 348 349 350 354 355 356 355 355 353 352 354 356 355 354 353 350 349 350 350 350 350 349 347 345 346 348 348 348 348 348 347 345 344 342 339 336 335 332 329 333 337 339 337 336 335 334 331 327 322 325 333 337 334 330 329 329 329 329 330 330 332 332 332 334 336 336 335 335 336 337 337 337 340 340 340 342 342 342 342 343
347 352 357 357 353 352 353 351 351 351 353 354 356 356 354 352 353 355 357 356 354 351 350 351 351 351 350 350 350 348 346 347 347 348 348 349 348 346 345 343 342 338 335 333 331 328 332 336 338 336 333 335 336 333 325 320 325 333 335 332 331 330 329 329 329 329 330 331 332 332 333 333 333 332 333 334 335 335 337 338 338 338 339 341 341 341 342
350 354 359 360 360 360 359 357 356 353 353 355 358 357 354 353 354 356 357 357 354 350 351 352 352 351 352 351 349 347 347 346 345 347 349 350 347 345 342 338 335 333 334 334 332 331 333 335 336 332 329 331 334 328 319 318 327 334 333 330 330 329 329 328 329 329 329 330 330 330 331 331 330 331 332 333 334 335 335 335 335 336 337 338 338 339 340
354 357 361 363 365 362 359 358 358 357 357 359 360 356 353 354 356 357 358 356 352 352 353 353 352 352 353 351 349 347 346 345 346 348 350 349 346 342 338 335 333 334 333 333 335 336 337 334 331 327 323 325 325 320 315 319 329 334 331 329 330 329 329 328 328 328 329 329 329 329 330 330 330 331 333 333 333 334 334 333 334 334 334 335 335 336 337
355 358 363 365 365 363 362 360 359 358 360 361 358 355 354 356 357 358 356 354 352 354 354 352 351 353 352 350 349 347 346 345 348 349 348 347 345 342 340 339 338 335 331 333 338 340 335 329 327 324 320 317 317 316 318 326 333 332 329 329 330 328 328 329 328 328 329 328 328 328 328 329 330 332 332 333 333 332 332 333 333 333 333 334 335 335 336
355 354 355 355 354 356 361 361 358 359 361 361 358 356 356 358 358 358 355 353 353 356 356 353 352 353 352 351 349 348 347 348 349 348 346 346 345 344 342 340 336 331 330 334 338 336 330 326 325 323 318 315 317 323 329 333 332 329 328 330 330 328 328 328 329 329 328 328 328 328 327 329 330 331 331 332 331 330 331 332 332 331 332 333 333 333 333
352 347 345 345 344 344 350 358 361 362 362 361 359 357 358 360 360 357 353 351 354 356 355 353 353 353 352 351 350 348 349 350 348 346 346 346 345 344 342 339 334 331 333 336 335 330 326 325 325 321 318 319 324 330 334 332 329 328 329 329 329 328 328 329 329 329 328 328 328 327 328 328 329 329 330 330 330 330 331 330 329 330 330 330 330 329 329
352 344 340 342 342 339 340 350 361 365 363 361 360 358 358 361 359 354 350 351 355 356 355 354 353 353 352 351 350 349 350 350 348 346 346 347 345 344 342 339 335 333 335 336 332 327 325 326 324 321 321 325 329 331 330 328 328 328 328 328 329 329 329 329 330 329 328 328 328 327 328 328 328 328 329 329 328 329 329 328 328 329 328 328 326 326 325
353 346 340 340 343 342 342 350 360 366 364 361 360 359 359 359 357 353 350 351 354 355 354 353 353 353 352 351 351 350 350 348 347 344 345 345 345 343 341 338 334 332 334 334 332 328 326 326 325 323 323 326 329 329 327 325 326 326 326 328 329 329 329 329 330 330 328 327 328 328 328 328 328 328 328 327 327 327 327 326 326 327 326 325 324 323 323
353 349 344 342 343 346 351 358 364 365 364 362 360 360 360 359 358 354 352 352 353 355 354 353 352 351 352 351 351 350 349 348 346 344 344 343 343 341 339 336 333 331 332 332 330 327 326 326 325 324 325 326 327 327 325 323 322 324 325 327 328 327 328 330 330 329 327 328 328 328 328 327 328 328 327 326 326 326 326 325 325 325 324 323 322 322 322
350 347 343 340 340 343 352 362 365 364 362 362 362 359 359 359 357 355 355 354 354 354 354 352 351 352 352 351 350 350 348 347 345 344 344 343 342 339 338 335 333 332 332 329 326 326 328 328 325 325 326 326 326 325 323 321 320 323 325 326 326 327 328 329 328 327 327 328 328 328 327 327 327 327 326 325 325 325 325 324 324 323 321 321 321 321 321
350 347 345 344 342 342 349 360 364 362 360 361 361 360 360 358 356 356 357 356 354 354 353 352 352 353 352 351 351 349 347 345 345 344 343 343 341 339 338 335 331 330 331 330 328 327 328 328 326 326 327 327 326 325 324 322 322 324 326 325 326 326 327 326 326 326 327 327 326 325 325 326 326 326 325 324 324 324 323 322 322 321 320 320 320 320 319
349 349 350 349 344 343 348 358 362 360 358 359 360 360 360 359 357 356 356 354 352 351 351 351 352 352 352 351 349 347 345 344 344 343 343 342 340 338 336 332 329 330 333 333 331 330 330 329 329 328 328 327 326 326 324 323 324 325 325 325 325 325 325 325 325 325 325 325 324 324 324 325 324 324 324 323 323 322 321 321 320 319 319 319 318 318 317
344 346 347 344 340 341 348 357 360 358 358 359 360 359 358 357 356 355 354 352 351 351 352 351 351 351 350 348 346 345 345 344 343 343 342 340 338 336 334 331 330 332 332 331 330 331 332 330 329 328 327 327 327 326 325 324 325 325 325 324 323 323 323 324 324 323 323 322 322 322 323 323 322 322 322 322 321 321 320 319 319 318 317 317 316 316 315
340 342 342 341 339 341 348 356 360 360 360 359 358 357 355 355 355 354 353 351 351 351 351 350 349 348 346 345 344 344 344 344 343 342 340 338 336 334 333 331 330 330 330 329 330 329 330 329 329 328 327 326 326 325 325 325 324 324 324 323 322 321 322 323 322 321 320 320 321 321 321 321 321 321 321 321 320 319 318 317 316 316 315 314 314 314 313
Wind_Speed
15 17 18 15 10 11 13 12 11 12 15 16 15 14 10 6 3 3 10 12 11 10 10 13 13 10 9 11 10 9 9 7 7 8 6 4 3 4 4 2 2 3 4 7 5 3 4 3 3 3 3 2 3 3 3 2 2 1 3 8 9 6 2 2 4 4 2 2 3 4 6 6 5 4 3 5 7 7 8 7 7 8 8 7 8 10 9
12 16 18 16 12 10 9 10 13 16 13 12 13 12 10 9 5 10 13 12 11 11 12 14 13 9 8 12 11 9 9 8 7 7 4 3 4 4 3 1 1 4 6 6 3 2 3 3 3 3 3 2 2 2 3 3 2 1 5 10 8 4 3 2 3 4 3 1 2 4 4 3 4 4 4 6 7 7 8 7 7 6 5 6 8 9 8
10 14 16 15 12 10 10 11 14 14 12 11 11 10 9 7 6 10 13 11 9 10 12 12 10 10 12 12 11 10 9 8 7 6 4 4 5 3 3 2 5 5 4 3 2 2 1 1 1 2 2 2 2 1 0 2 2 3 6 8 4 1 2 3 3 4 3 1 3 5 4 3 5 5 6 7 7 7 8 7 6 5 5 7 9 9 6
9 10 13 16 17 16 14 14 13 11 10 11 10 9 10 10 8 10 11 7 8 9 12 14 14 15 13 11 11 10 9 8 5 5 6 5 3 1 1 2 4 4 2 1 1 2 3 2 2 2 2 1 1 3 4 3 2 4 7 7 6 3 3 5 7 5 2 1 3 6 7 7 7 5 6 7 6 7 8 6 4 4 5 7 8 7 5
7 7 10 14 15 15 12 8 8 9 12 14 11 6 11 14 8 3 1 5 11 12 13 14 14 14 12 10 9 8 8 8 4 5 6 4 2 3 2 1 3 4 3 2 2 3 4 3 3 3 3 3 3 4 5 4 5 6 5 6 8 6 5 6 8 6 2 1 1 5 7 8 8 7 6 5 5 7 6 5 4 3 5 7 7 5 4
6 9 12 12 11 8 3 2 5 11 13 12 8 2 15 22 12 7 11 11 13 14 14 14 13 12 11 9 9 8 8 6 4 5 4 4 6 5 1 2 4 4 4 4 4 4 5 4 4 4 4 4 4 4 4 4 6 6 5 6 7 7 8 8 7 8 6 1 2 5 7 7 8 8 6 5 6 8 7 5 4 4 4 8 6 4 3
3 7 10 9 7 2 4 5 6 11 15 13 7 5 14 20 14 11 17 16 15 14 14 14 13 12 12 10 10 10 8 6 5 4 5 8 8 3 3 4 5 5 5 6 5 5 5 4 4 4 4 4 4 5 4 4 6 7 5 5 7 6 6 7 6 8 9 6 6 7 7 7 8 8 7 6 7 9 8 7 5 4 5 10 7 5 3
1 4 6 6 4 2 2 3 3 6 8 8 8 4 11 18 12 9 14 16 14 13 14 13 12 13 13 10 9 9 8 7 6 4 8 8 4 6 3 2 4 6 6 6 6 5 5 5 4 4 4 4 5 5 4 4 5 7 5 4 5 5 5 6 5 6 8 8 8 9 8 7 7 8 8 7 7 8 8 6 5 3 7 8 5 4 2
3 3 4 4 5 3 4 4 3 4 3 4 4 4 7 12 10 9 11 12 12 13 13 13 12 13 12 8 6 7 8 6 6 8 12 4 11 9 7 5 6 8 7 7 6 5 4 5 5 6 5 5 5 4 4 4 4 5 5 4 4 5 5 5 5 5 6 6 7 8 8 8 8 7 8 8 7 7 7 5 2 4 9 8 5 5 2
3 4 4 2 4 4 5 8 5 4 4 3 4 3 3 8 11 12 13 11 13 13 12 13 13 10 9 6 3 6 8 4 3 11 12 14 17 8 8 6 6 8 7 7 7 5 5 5 5 6 6 5 5 5 5 5 5 4 4 4 4 5 5 5 6 6 5 6 7 6 7 8 8 7 7 8 8 6 6 4 5 7 8 6 5 4 2
2 4 4 2 2 4 3 5 6 5 4 3 3 0 2 8 14 14 13 13 14 14 12 13 11 7 7 6 1 3 6 4 4 6 5 14 10 7 7 5 6 8 8 8 7 6 6 6 5 6 6 6 6 5 6 7 6 4 3 4 4 5 5 6 6 6 6 6 6 6 6 8 8 7 8 8 8 6 5 5 6 5 5 5 4 3 3
4 4 4 3 2 2 3 1 5 7 5 4 1 2 2 8 13 13 13 13 13 13 11 10 8 5 5 4 3 3 5 6 9 7 11 8 5 9 6 5 6 8 8 7 7 6 6 6 6 6 7 7 7 6 7 9 8 5 4 5 6 5 5 6 6 7 7 6 6 6 7 7 7 7 8 8 7 5 4 5 6 4 4 6 4 4 4
6 5 4 4 1 3 4 2 6 7 1 2 3 2 1 7 12 12 12 12 11 11 10 8 5 4 5 5 6 6 6 8 12 13 11 2 9 7 4 3 4 7 7 6 8 8 6 6 6 6 7 8 8 7 8 9 8 7 6 6 6 6 7 7 7 7 7 6 7 7 7 7 7 7 7 7 6 5 4 6 7 4 3 4 3 3 2
7 5 5 4 1 3 4 6 9 5 4 3 2 3 3 4 11 11 9 10 12 11 10 9 5 2 5 8 9 8 8 10 12 10 6 6 10 7 5 5 5 7 8 8 8 8 7 7 7 7 8 9 8 8 9 9 8 8 7 6 6 7 8 8 7 6 6 7 7 6 6 7 8 7 7 7 6 5 5 6 5 3 2 2 1 1 1
6 5 5 3 2 1 4 6 8 3 2 2 4 5 5 6 4 10 8 10 13 12 12 13 9 7 8 9 10 9 9 8 9 9 7 8 9 8 7 6 6 7 8 8 9 8 8 8 8 8 9 10 9 9 8 8 8 7 7 7 6 7 8 7 6 6 5 6 5 5 6 8 8 8 8 7 6 6 6 5 4 3 2 1 1 2 3
3 4 4 2 2 4 5 5 6 5 4 3 5 8 2 7 2 8 7 8 10 7 9 13 11 11 12 11 9 12 13 8 5 6 7 9 10 10 8 7 8 8 8 8 8 8 9 10 9 10 11 10 9 8 8 7 7 6 6 6 6 7 7 7 6 5 4 5 5 5 6 7 8 8 7 7 7 6 6 5 5 4 4 3 4 5 5
5 3 2 5 4 2 7 8 9 10 9 5 6 9 6 5 2 6 6 9 11 7 7 9 8 10 13 12 10 13 13 10 8 7 8 10 11 9 8 8 9 9 8 8 8 9 10 12 12 13 12 10 9 8 7 7 6 5 5 5 5 6 6 5 5 4 4 4 4 4 5 7 7 7 7 7 6 5 6 6 6 6 6 8 9 9 9
7 3 4 2 5 2 10 10 10 10 8 7 8 10 8 4 4 7 6 8 12 12 12 10 9 9 11 12 12 12 11 10 10 9 9 11 10 8 8 9 8 8 9 9 10 11 11 12 13 14 12 11 9 8 6 5 5 5 5 4 4 5 5 5 4 4 3 3 4 5 6 7 7 7 7 7 7 7 8 8 10 10 10 11 11 11 13
5 4 2 2 4 3 9 8 8 7 8 8 8 9 9 7 6 9 9 8 10 11 9 9 10 11 12 12 11 11 10 10 10 9 9 10 9 9 10 9 8 9 10 10 11 11 12 12 13 12 12 11 9 7 6 6 5 5 4 3 4 4 4 4 3 3 3 3 4 5 6 7 7 8 9 9 9 9 7 7 8 11 10 8 7 6 5
5 5 5 8 7 0 6 7 7 6 9 10 9 7 9 10 10 12 13 11 11 11 6 8 12 13 14 14 11 10 10 9 9 9 9 10 10 10 10 10 10 11 11 11 12 12 12 12 12 12 11 10 9 7 7 6 5 4 4 3 2 2 3 3 3 2 2 3 3 5 6 5 3 2 4 3 5 6 1 7 5 1 2 5 7 10 8
8 6 2 4 5 1 3 5 4 3 3 8 11 9 10 12 14 16 16 14 14 13 11 13 14 14 14 14 12 11 10 9 8 9 10 11 12 11 11 11 11 11 12 12 12 12 11 11 11 11 11 10 9 8 7 7 6 5 4 3 2 1 1 2 2 2 2 3 3 4 6 5 4 4 2 4 7 6 3 7 7 6 7 7 7 9 9
7 6 3 3 2 1 2 5 6 6 6 7 8 9 11 12 13 16 18 16 15 16 16 16 14 12 12 14 13 11 9 9 10 12 12 12 12 11 12 12 12 12 12 12 12 12 12 11 11 11 10 9 8 8 8 7 6 5 4 3 2 0 1 1 1 2 2 3 3 4 4 4 4 5 5 2 2 3 2 5 6 6 6 6 6 6 4
6 9 9 5 4 1 2 2 2 2 5 7 6 5 8 11 12 14 16 16 15 12 13 13 11 11 14 15 15 12 11 13 14 13 13 13 12 12 12 11 12 12 11 12 13 13 12 11 10 10 10 8 8 8 7 7 6 5 5 4 3 2 1 1 1 2 4 2 2 4 3 2 4 6 7 6 5 4 4 4 5 5 5 4 4 4 2
8 11 10 1 4 2 1 5 3 1 6 7 3 5 8 9 10 12 12 12 13 10 9 8 14 18 17 17 17 14 13 15 16 14 14 14 13 13 12 11 12 11 11 11 12 12 11 11 9 10 9 8 8 8 7 7 6 6 5 4 4 4 3 3 2 2 5 3 1 2 3 3 4 5 5 6 7 7 7 7 6 6 5 4 3 2 3
8 8 9 5 1 5 7 11 10 9 10 5 2 5 9 7 8 11 10 8 8 9 8 11 17 20 19 19 19 16 15 16 16 15 15 14 13 13 13 12 12 11 10 10 10 10 11 11 9 9 9 9 8 8 7 7 6 6 5 5 4 4 4 4 3 3 4 5 4 4 3 3 4 5 5 6 6 7 8 9 8 8 7 6 5 3 4
8 6 8 7 4 8 10 11 12 14 16 13 9 6 7 6 8 10 9 6 7 10 13 15 17 19 21 20 19 18 18 17 16 15 14 13 13 13 13 12 12 11 10 10 10 10 10 10 9 10 10 9 9 8 7 7 7 6 6 5 4 5 5 4 4 4 4 5 6 4 2 3 5 6 7 8 6 4 6 8 9 9 9 9 7 5 4
8 8 9 7 6 10 11 10 11 13 15 17 16 13 11 11 13 14 13 11 12 14 18 19 19 19 20 20 19 19 18 16 15 13 13 13 13 13 13 12 12 11 10 10 9 9 9 8 9 10 10 9 8 7 7 8 7 7 6 6 5 6 6 4 3 4 4 5 6 6 3 3 4 5 6 8 7 5 6 7 7 8 9 10 9 7 6
9 9 10 7 7 9 9 10 11 11 10 12 16 17 15 13 14 17 18 18 17 17 19 21 21 20 19 18 18 18 16 15 15 13 12 13 13 13 13 12 11 10 10 9 9 8 9 9 9 9 10 9 8 7 8 8 8 7 7 7 7 7 7 6 4 4 5 4 5 6 6 4 4 5 6 7 8 7 6 5 4 4 6 9 9 8 8
9 10 9 6 5 6 7 10 10 9 9 12 16 20 19 16 16 16 18 18 18 17 17 19 20 20 19 18 17 16 15 14 14 13 13 13 12 12 13 12 11 11 10 9 8 8 8 9 9 9 9 9 8 8 8 8 7 7 7 8 8 9 8 7 6 6 6 5 5 7 7 6 6 7 7 8 9 8 7 6 6 4 5 8 11 11 11
7 10 10 6 7 9 10 12 11 11 12 13 14 18 19 19 17 16 17 16 15 15 16 18 18 18 18 17 16 15 16 15 14 14 13 12 10 9 9 10 11 11 10 9 9 8 9 10 10 8 8 9 9 9 8 7 6 7 6 6 7 9 10 8 7 7 7 7 6 7 7 6 6 7 7 7 9 9 9 10 9 7 6 10 13 15 15
9 13 11 5 8 8 7 8 7 6 10 13 14 15 17 16 15 16 15 13 13 14 16 17 17 16 16 16 16 17 17 16 15 14 12 11 10 9 9 10 12 11 9 9 9 8 9 9 9 8 9 11 11 10 10 9 8 8 6 4 4 7 9 10 8 6 6 7 7 7 7 6 5 6 7 8 8 6 6 9 10 8 6 8 12 15 17
13 15 11 7 9 5 5 10 7 2 7 10 12 11 10 11 14 15 13 12 13 15 15 15 15 15 16 18 18 18 17 15 15 14 12 11 11 11 12 13 12 11 9 9 9 8 8 9 9 9 11 13 12 12 11 11 10 10 9 7 5 5 7 9 8 6 5 6 6 7 8 8 7 6 6 8 8 5 5 7 9 8 6 6 9 10 11
15 10 5 7 9 4 3 9 9 5 7 8 8 6 7 9 10 10 11 13 14 14 14 14 16 18 18 18 18 17 16 15 14 13 12 11 11 11 11 11 11 10 10 9 9 8 7 7 8 9 11 13 13 13 13 12 10 10 10 10 9 7 7 8 8 7 7 7 8 7 7 7 8 8 8 8 8 8 7 8 9 8 6 7 9 8 6
10 9 7 9 11 7 3 2 3 3 5 7 8 8 9 11 10 10 14 16 14 14 15 17 19 20 18 17 17 16 14 12 10 10 11 11 10 11 12 11 10 10 10 10 9 8 7 6 7 7 8 10 12 14 15 13 10 9 10 10 10 9 9 9 9 9 9 9 10 9 9 8 8 9 8 8 8 9 8 9 10 10 9 8 7 7 6
2 12 15 12 11 9 4 3 3 4 7 9 10 10 11 13 13 14 16 16 15 16 19 20 20 19 18 16 15 14 12 11 11 11 12 11 10 11 12 11 10 10 9 9 9 9 7 6 6 6 6 7 9 12 15 14 10 10 11 11 10 10 10 10 10 10 10 10 10 11 11 12 11 10 9 7 7 8 8 8 9 10 11 10 8 7 6
6 5 13 12 12 12 11 8 9 12 12 8 9 9 11 15 16 16 16 17 18 20 21 21 20 18 17 15 13 12 12 13 13 12 12 11 10 10 11 11 11 9 8 8 8 7 7 7 7 7 6 6 7 11 14 13 10 10 11 11 10 10 10 10 10 11 10 10 11 11 11 12 12 11 10 10 9 9 9 9 9 10 10 11 9 8 8
9 7 9 12 13 15 15 16 18 17 10 6 8 10 12 15 17 18 18 19 20 20 21 20 19 17 15 14 14 13 14 14 13 12 11 11 10 9 9 9 9 8 8 8 8 6 6 6 7 8 7 6 7 10 13 12 9 10 11 10 9 10 11 10 10 11 11 11 12 12 12 11 11 11 12 12 12 12 11 11 10 10 11 11 11 10 9
9 9 10 16 18 19 18 18 18 15 11 10 11 13 15 17 18 19 19 19 20 21 21 20 18 17 16 15 14 14 14 13 12 12 11 11 10 9 8 7 6 7 8 8 7 6 5 4 4 6 7 6 6 9 13 13 9 9 10 9 8 10 11 10 10 11 11 10 11 12 12 11 11 12 13 13 13 13 13 12 11 11 11 11 12 12 11
9 10 8 14 18 19 18 17 15 15 14 13 13 14 18 20 20 19 19 19 20 21 21 20 18 17 16 14 13 13 13 13 12 12 12 10 9 9 9 9 8 8 9 8 7 6 5 4 4 6 8 7 7 9 13 12 9 9 10 8 7 9 10 10 10 11 10 11 12 12 12 12 13 13 13 13 13 13 14 14 14 14 13 12 12 12 13
9 10 7 8 11 14 14 13 13 14 16 16 15 17 20 21 21 19 18 19 20 22 22 21 18 16 14 14 14 13 13 13 13 12 11 11 10 9 9 9 7 7 8 8 7 6 5 6 8 8 9 8 8 10 12 10 8 9 10 7 7 9 9 9 10 10 10 11 12 12 12 13 13 13 13 13 13 13 14 16 16 16 16 15 14 15 14
7 7 5 5 7 12 14 13 12 14 16 17 18 21 23 22 20 19 19 19 21 22 21 20 19 16 14 15 15 14 13 14 14 12 12 11 9 8 8 9 8 8 8 8 6 6 7 8 9 10 10 9 9 11 11 9 8 9 8 7 8 8 8 8 9 10 10 11 11 12 12 13 13 13 13 13 13 14 15 15 16 16 17 17 18 17 17
5 3 1 1 0 6 13 15 13 13 15 18 19 22 24 24 21 20 21 22 22 21 19 19 19 18 17 16 16 15 14 14 14 12 12 9 5 5 8 10 9 8 8 6 5 6 9 11 11 12 12 11 10 10 9 7 8 9 8 8 8 8 8 8 9 9 10 11 11 11 12 12 12 12 13 13 13 14 15 15 15 16 17 17 18 18 18
5 4 4 3 4 4 5 13 15 13 14 18 21 23 23 23 22 21 23 24 22 20 18 18 18 18 18 17 16 15 14 14 14 13 11 8 5 6 10 12 11 10 8 5 4 8 11 12 12 13 13 11 9 9 9 8 8 8 8 8 8 8 8 8 8 9 10 10 10 11 12 12 12 12 12 13 14 14 14 14 15 16 16 17 17 18 19
7 5 4 4 1 7 8 5 14 15 13 16 22 24 23 21 22 24 25 24 22 20 19 19 18 18 18 17 16 15 15 15 14 13 12 9 9 9 11 12 11 10 7 5 7 12 13 11 12 13 11 8 8 9 10 9 8 8 8 8 8 8 8 8 8 9 9 10 10 11 11 11 11 11 12 12 13 13 13 14 15 15 15 16 17 18 19
9 8 4 3 2 4 11 11 11 17 18 19 22 24 23 21 22 25 26 24 22 21 20 20 20 19 18 17 16 15 15 15 14 14 12 9 8 10 11 10 10 9 7 7 11 13 11 11 12 12 9 8 9 10 10 9 8 9 9 8 8 8 8 8 8 8 9 9 10 10 10 10 11 11 11 12 13 12 13 14 14 14 14 15 16 17 18
11 13 10 6 7 15 23 23 18 19 23 22 19 19 21 22 23 25 26 25 23 22 21 20 21 20 18 18 17 16 15 14 13 11 9 9 10 12 12 11 10 9 8 9 12 12 10 10 11 10 9 9 10 10 9 9 9 10 9 9 9 9 8 8 8 8 9 9 10 10 10 10 10 10 11 12 12 12 12 14 14 13 14 15 16 17 18
11 12 15 15 14 21 27 25 21 20 20 18 14 14 19 23 23 23 25 25 23 21 20 20 20 19 18 18 18 17 16 14 12 10 9 11 14 15 14 13 12 10 8 10 13 11 9 10 10 9 9 10 10 9 9 10 11 10 9 9 9 9 8 8 8 9 9 9 9 9 10 10 10 10 11 12 12 11 12 14 13 13 15 16 16 17 17
10 10 15 18 13 15 19 17 20 17 14 15 16 17 20 23 23 22 23 24 22 20 20 19 19 18 18 18 17 17 16 14 13 11 11 13 15 15 14 14 13 10 8 9 10 8 7 8 10 10 10 10 9 9 10 11 11 9 8 9 9 8 8 8 9 9 9 9 8 9 10 10 10 10 11 12 12 12 13 13 13 14 15 16 16 16 17
13 13 15 16 14 13 18 15 14 13 13 16 19 20 21 23 22 21 22 23 21 20 19 19 18 18 18 17 16 15 14 13 13 13 14 14 14 14 14 13 12 10 9 9 8 6 6 8 10 11 11 10 9 9 10 11 10 8 8 9 9 8 8 8 8 8 8 8 9 9 10 10 10 11 11 11 11 12 12 13 13 14 15 15 15 15 16
6 6 6 9 12 14 20 16 12 14 17 19 20 21 23 23 20 18 20 22 21 19 18 18 18 17 17 15 14 14 13 12 13 15 15 14 14 15 15 14 11 8 7 7 8 8 8 9 10 11 10 9 9 10 11 11 10 9 9 9 9 9 9 8 8 8 9 9 9 9 9 9 10 11 11 11 11 12 13 13 13 14 15 14 14 15 16
6 2 3 6 8 17 24 19 16 20 21 21 22 23 23 21 19 19 21 21 20 19 18 18 17 16 15 14 13 14 13 13 15 16 15 14 15 15 15 13 11 8 5 5 6 8 8 7 8 10 10 9 9 11 11 11 10 9 9 9 9 9 9 8 7 8 10 10 9 9 9 10 10 11 11 11 11 12 13 13 13 14 14 14 14 15 16
14 10 9 8 8 22 28 19 18 22 22 22 23 23 22 21 20 20 20 20 20 19 19 17 16 16 15 14 14 14 13 14 15 15 15 15 15 15 13 12 11 8 6 4 4 5 6 6 6 8 10 10 9 10 10 10 10 9 8 9 10 10 8 7 8 9 10 10 9 9 9 10 11 11 11 11 12 13 13 13 14 14 15 15 15 16 17
Wind_Direction
239 250 258 264 265 255 255 263 262 240 225 224 236 250 254 258 274 141 145 153 156 156 156 154 164 188 178 145 133 132 128 120 114 110 115 144 124 67 48 23 5 357 305 280 277 282 278 268 231 221 225 203 187 190 195 167 139 152 102 76 59 49 42 357 18 40 71 66 83 133 146 139 136 143 138 122 117 110 100 94 86 75 70 73 76 70 57
233 241 252 262 276 275 259 261 272 273 261 235 236 254 253 235 197 133 139 159 167 163 161 165 175 176 140 125 125 127 122 113 111 116 136 151 85 42 346 290 215 253 248 246 257 263 251 241 208 198 207 216 215 221 209 162 133 145 84 72 61 57 70 50 8 20 22 29 125 150 171 165 138 143 148 135 127 119 108 102 100 93 82 88 88 76 65
242 235 240 241 249 263 265 256 251 259 276 276 269 284 291 267 204 163 164 165 160 154 145 139 134 120 112 117 123 122 119 115 121 136 137 93 62 16 331 135 169 213 225 214 209 197 211 223 166 173 189 202 217 270 144 132 124 107 87 81 89 117 66 72 65 32 1 263 157 167 184 159 137 152 160 150 140 131 123 118 118 114 85 71 75 77 77
251 235 234 232 227 227 237 255 263 265 273 277 270 268 274 270 242 222 212 172 123 118 123 116 111 111 115 120 121 117 112 109 119 134 107 75 53 18 32 97 150 178 171 172 174 128 123 126 124 139 155 162 113 70 76 91 104 97 95 103 118 111 49 57 73 69 9 281 173 180 174 151 149 160 161 159 152 136 135 139 131 110 89 85 85 82 79
267 259 252 247 235 227 227 247 285 296 283 268 260 282 316 311 291 258 250 124 113 115 124 124 120 121 121 120 115 108 114 119 112 102 95 68 61 91 64 87 156 156 144 122 79 86 102 110 106 111 116 98 79 80 87 95 107 106 106 112 114 115 112 95 92 107 139 320 145 173 174 160 156 154 153 166 161 145 145 149 143 128 112 106 97 80 70
262 264 264 260 243 235 254 16 9 351 327 291 254 63 16 355 352 80 95 111 123 123 127 128 125 125 119 110 107 108 124 132 101 85 79 27 27 56 90 198 164 142 132 126 113 97 96 102 106 107 106 98 89 83 78 76 86 92 98 108 112 118 123 119 114 118 122 82 108 155 173 170 159 155 158 163 162 162 159 144 158 185 135 113 102 83 73
295 288 270 255 242 256 11 19 21 8 354 346 348 65 57 35 30 80 104 116 124 121 121 123 124 123 116 109 105 104 109 104 78 66 60 34 7 326 212 183 144 130 131 128 122 116 115 119 117 110 101 93 87 80 71 67 81 88 90 101 106 106 107 112 114 113 120 139 152 154 163 162 155 154 155 153 158 167 160 144 175 207 116 103 99 95 98
52 302 269 255 266 300 317 315 10 13 355 358 358 12 79 76 72 91 101 102 110 117 123 123 118 114 110 100 95 104 114 112 107 84 69 55 307 261 203 158 142 134 134 127 123 130 133 123 109 101 90 79 80 83 78 70 82 91 90 85 91 88 85 95 100 102 115 132 140 141 145 145 142 139 141 145 149 155 156 162 205 190 109 102 102 105 109
195 247 257 283 313 290 269 303 24 52 13 27 37 22 73 89 101 119 111 104 111 120 124 122 114 105 101 95 107 128 122 108 120 109 95 141 231 207 150 166 158 133 129 123 122 128 124 115 105 98 90 83 85 84 78 77 80 91 95 82 78 76 71 74 78 84 95 103 116 128 134 134 133 131 136 141 137 142 157 174 187 113 99 98 97 96 84
231 241 236 273 321 296 309 336 354 128 128 79 74 63 79 90 93 108 126 137 137 133 131 127 122 111 105 110 125 113 91 68 114 120 134 201 220 180 134 157 141 121 125 121 121 125 110 101 98 97 93 83 79 74 73 83 85 84 88 85 78 75 68 65 71 79 85 91 101 113 118 124 131 128 126 130 128 135 154 145 102 96 97 96 97 94 62
238 261 249 233 257 222 223 329 357 76 74 32 62 61 181 121 113 121 139 148 148 148 144 133 129 124 114 118 123 99 102 93 78 92 181 216 199 121 119 155 128 121 131 123 122 121 103 93 89 90 88 75 70 68 72 83 84 72 74 90 89 80 73 74 80 85 88 95 105 111 113 119 124 116 109 116 124 137 155 130 103 107 116 117 122 127 110
226 241 251 246 245 165 145 38 53 66 19 346 127 231 248 127 131 145 156 156 148 142 134 125 124 119 114 134 190 173 143 124 122 165 229 230 129 110 139 156 128 135 144 129 116 107 94 89 82 80 82 76 70 71 75 84 91 87 85 96 95 88 83 82 87 92 95 101 108 115 116 112 111 110 108 112 123 134 139 123 118 127 130 127 142 151 133
242 227 239 261 247 139 156 147 101 103 156 237 181 236 22 127 149 161 163 158 142 132 133 126 108 91 114 156 183 180 169 144 148 184 217 152 84 93 103 77 96 124 124 106 102 98 84 76 71 68 74 74 73 75 74 77 85 88 91 95 94 94 93 88 87 93 99 105 110 118 126 120 110 109 108 111 118 116 102 104 112 115 101 104 122 133 121
258 236 228 238 154 134 169 137 111 125 199 185 133 31 13 170 166 156 158 157 145 144 137 115 99 121 149 167 181 181 172 149 147 181 199 113 96 92 75 59 69 95 97 90 87 85 75 65 57 58 67 72 76 78 74 72 75 78 81 86 92 98 97 91 88 92 97 104 109 120 132 125 115 110 108 108 112 107 98 100 108 118 111 102 125 169 213
272 264 252 228 144 164 208 152 125 136 211 159 111 70 347 290 170 139 166 173 155 155 138 121 137 176 172 186 193 170 154 147 147 163 156 117 108 104 90 73 66 75 85 86 82 81 78 66 53 54 65 73 78 78 75 75 77 77 77 81 91 99 99 94 91 92 98 103 106 117 125 120 117 115 113 118 122 119 120 124 128 135 133 132 264 261 254
307 281 298 336 114 166 183 145 103 93 117 145 123 114 179 270 198 137 166 153 130 136 132 130 154 173 175 197 192 143 137 146 140 128 110 94 95 98 90 80 76 74 74 77 81 85 85 75 61 57 64 72 80 79 75 75 76 80 82 86 97 103 101 99 97 97 107 110 110 123 128 123 122 124 128 138 141 139 145 158 169 174 181 207 232 246 249
322 303 34 2 338 107 112 99 97 111 135 155 133 132 173 228 142 114 129 121 117 131 140 141 169 178 169 172 154 131 138 146 134 117 100 90 92 98 99 96 92 87 81 74 65 64 75 80 72 62 59 65 73 75 76 75 76 82 87 93 106 111 110 110 107 109 121 126 131 137 135 131 134 143 153 157 158 163 173 186 199 205 212 218 221 225 225
327 310 143 206 284 93 102 104 109 122 149 168 156 159 176 181 125 114 115 125 137 146 148 154 179 179 152 141 138 136 135 129 116 104 96 98 105 111 108 100 93 91 90 82 65 53 57 68 70 64 59 59 64 69 71 72 74 81 88 99 109 114 119 121 121 130 140 148 153 151 152 158 161 168 176 175 180 192 205 217 216 213 221 229 231 229 217
323 315 37 321 286 118 116 126 132 147 184 186 174 177 171 156 142 128 127 140 134 119 122 150 169 166 149 144 146 140 128 118 110 105 106 111 111 105 96 88 82 80 78 74 70 61 51 51 57 59 56 55 58 60 59 60 69 79 83 93 108 120 131 134 141 155 162 172 171 165 175 185 180 184 199 205 196 196 228 261 234 211 219 237 255 267 217
266 280 3 351 319 15 131 149 152 178 200 182 169 174 160 150 149 137 133 137 121 102 117 168 169 163 156 150 144 131 118 108 105 114 122 118 109 102 95 88 80 75 73 71 70 66 59 55 56 55 53 52 51 54 54 52 57 67 65 68 93 122 137 143 161 174 173 192 193 180 191 212 231 209 207 192 150 161 256 345 1 44 5 11 9 4 18
277 268 334 338 307 298 147 174 154 128 162 157 153 154 146 143 146 139 133 133 133 140 165 176 171 167 157 141 127 116 108 101 116 140 140 126 116 108 96 88 81 78 77 76 72 68 64 62 60 56 52 46 44 49 51 46 43 46 50 56 67 103 148 169 190 200 197 207 212 199 197 218 277 319 352 71 94 114 63 17 21 17 14 22 16 5 11
273 274 260 226 218 144 189 203 177 145 130 131 137 142 142 143 144 142 141 142 147 157 170 176 173 159 137 122 114 112 116 126 141 145 133 120 114 106 97 92 86 81 80 79 76 72 67 64 63 60 54 45 43 45 43 41 38 33 31 29 20 13 226 233 221 222 235 218 212 224 220 217 250 269 264 244 130 127 43 14 8 355 356 360 353 358 15
284 303 281 217 158 318 272 196 189 158 113 101 99 121 142 148 146 143 144 140 138 154 181 183 154 119 111 117 121 124 133 137 135 128 119 114 110 103 98 93 86 82 81 79 77 74 70 65 64 63 57 48 47 46 40 37 34 28 27 14 355 8 30 348 317 265 273 263 194 215 233 241 257 252 239 237 250 271 299 319 320 317 316 315 328 341 310
279 300 297 199 113 300 247 122 121 94 92 89 102 158 154 153 147 141 139 134 137 162 190 156 114 104 111 123 127 130 134 130 124 119 114 112 107 102 98 92 86 81 76 73 75 77 77 71 65 66 65 55 49 46 41 38 34 29 33 22 1 7 12 2 3 300 288 305 328 260 251 248 263 254 223 216 233 250 261 271 274 276 277 273 277 289 264
265 296 326 357 156 215 178 147 154 149 120 108 233 175 143 144 149 144 139 135 148 163 151 116 108 108 113 120 125 126 124 121 120 121 117 114 112 108 101 93 87 81 75 71 70 72 77 75 65 65 68 63 55 47 38 38 40 35 34 33 19 12 3 352 360 342 310 309 309 298 291 278 272 267 252 243 237 227 230 241 248 249 248 247 247 241 235
275 290 311 308 225 186 169 156 157 149 141 155 183 162 132 144 155 145 133 134 153 147 127 117 118 118 117 121 123 121 120 122 124 122 118 116 113 107 102 97 94 89 81 73 64 60 69 78 74 67 62 57 55 52 41 36 40 39 40 41 32 23 16 3 356 348 330 314 301 291 281 269 267 264 265 272 271 236 219 226 233 240 243 238 231 224 222
277 237 233 236 191 170 165 155 152 153 154 160 162 150 145 164 169 159 151 154 158 145 130 125 125 121 118 121 122 122 125 127 124 119 116 113 108 103 101 101 98 93 88 80 68 55 54 62 70 70 62 52 50 56 55 45 37 36 42 47 43 33 24 14 351 331 323 322 320 319 316 285 269 266 268 270 268 254 242 236 230 234 242 241 230 218 217
288 249 225 207 175 169 160 141 143 153 161 166 157 141 140 166 180 171 160 157 153 145 135 131 129 125 124 126 127 126 126 122 118 115 111 107 106 106 105 101 96 93 92 87 80 69 56 50 51 55 55 48 42 50 58 52 42 36 35 39 41 32 17 9 1 340 334 344 340 329 323 312 293 284 279 276 273 267 264 271 269 248 236 234 226 216 214
312 295 266 231 190 169 138 125 137 154 167 177 163 142 143 172 186 169 155 150 145 140 135 133 131 129 128 129 128 126 124 120 115 111 107 107 112 116 116 111 103 96 91 84 78 74 67 59 52 45 39 35 34 42 51 51 49 51 46 37 36 31 19 13 18 8 358 360 350 331 326 325 313 301 293 291 293 292 286 281 277 256 214 209 213 215 217
316 298 278 239 190 181 158 141 153 170 178 184 169 149 157 179 177 154 145 145 140 136 136 134 131 129 128 128 126 124 121 118 114 112 112 115 119 123 127 124 113 101 91 82 76 68 62 62 58 42 24 20 26 37 43 41 45 59 64 52 41 38 32 28 24 14 7 6 355 339 335 331 314 302 296 289 287 290 291 289 284 268 217 199 207 219 228
289 275 263 194 159 184 168 123 123 175 189 184 174 164 169 173 156 139 139 140 134 135 135 130 127 125 123 120 118 117 117 117 118 117 116 114 107 94 87 91 93 90 81 75 72 67 63 62 59 45 30 26 30 36 37 34 35 40 43 45 46 38 31 29 26 13 3 359 350 340 340 339 322 307 303 296 287 285 295 299 295 283 245 211 215 229 236
228 240 233 155 130 157 135 103 91 275 233 192 176 170 164 152 140 139 141 135 130 132 131 124 120 118 115 112 112 114 116 117 116 113 112 109 101 91 84 85 90 93 89 81 75 70 66 61 57 50 44 38 35 34 33 33 35 31 23 20 27 27 17 17 16 3 346 352 356 352 349 346 339 333 326 316 310 305 300 294 289 281 265 247 245 249 243
201 201 188 128 116 121 137 128 133 188 223 200 182 171 149 139 138 136 131 127 127 127 122 116 116 116 114 115 116 117 117 116 114 114 115 112 108 104 100 96 94 93 90 84 80 75 67 59 55 53 51 46 38 31 27 27 31 30 18 7 8 11 5 2 5 359 352 359 3 354 345 344 345 345 342 336 331 328 320 312 305 297 286 270 265 273 272
185 136 103 91 91 81 21 29 105 154 210 201 190 176 150 137 130 125 123 127 129 126 120 120 122 121 120 121 121 122 122 121 119 119 119 115 110 106 103 99 97 96 90 84 78 71 58 50 49 47 48 48 41 31 24 21 19 18 8 356 356 3 1 358 1 4 1 1 359 351 347 350 350 343 336 333 334 333 330 330 325 317 312 299 285 295 310
151 116 110 104 102 104 87 26 360 280 238 200 180 168 145 128 124 124 125 127 127 124 124 126 126 125 125 125 126 128 128 123 120 123 123 121 119 116 111 108 106 103 99 93 83 70 58 55 51 37 35 49 46 31 22 16 12 5 355 349 352 358 359 1 7 5 1 0 359 356 352 347 339 332 324 321 325 328 328 328 327 324 323 319 310 310 316
287 133 121 125 137 142 142 157 202 227 228 199 165 151 136 127 126 125 124 125 126 128 129 129 128 127 127 129 130 129 124 121 122 126 127 126 123 121 120 119 118 116 116 114 103 86 70 63 50 33 31 53 58 37 21 13 9 360 350 349 356 357 355 3 8 3 0 5 4 356 349 342 337 339 340 336 334 336 335 332 332 331 328 325 319 310 302
242 205 146 139 153 164 171 184 194 198 192 157 129 125 126 128 128 125 125 128 132 134 133 132 130 129 130 133 131 126 122 123 127 129 129 128 128 128 128 131 137 139 129 113 101 91 79 62 43 32 33 43 50 36 18 6 3 356 347 350 2 359 354 2 7 0 360 8 4 353 347 344 345 351 353 348 346 347 346 343 343 339 332 328 326 319 307
251 225 173 155 162 174 185 191 188 177 156 136 124 122 128 132 131 129 130 134 138 138 136 133 132 133 134 134 131 126 126 130 132 130 129 131 134 134 128 121 126 132 124 111 101 95 82 53 37 39 34 25 25 21 8 359 359 354 342 344 3 4 355 359 4 359 360 6 1 351 349 354 356 355 353 352 352 349 345 345 348 345 339 334 331 327 322
251 243 193 158 160 167 172 176 175 165 156 147 136 132 136 138 135 133 136 140 142 141 137 134 134 135 136 136 134 134 137 139 136 133 136 137 132 122 107 90 84 96 105 105 103 94 71 49 59 58 36 20 19 9 355 352 358 351 337 341 6 8 359 360 2 360 2 6 0 354 357 4 2 356 353 354 353 348 347 352 356 351 346 343 341 337 334
224 230 210 174 160 155 154 160 164 158 152 148 144 142 143 143 140 140 142 144 145 143 140 138 139 141 143 143 140 141 144 143 138 138 139 135 126 118 111 103 100 107 108 103 100 94 73 60 62 52 30 18 11 355 346 351 359 345 337 353 16 8 360 3 4 1 5 7 3 1 7 7 0 356 356 356 353 353 357 359 357 352 349 350 351 350 346
227 226 211 191 164 151 151 156 154 146 142 143 145 147 148 148 147 147 146 146 147 147 145 145 146 147 148 147 145 146 149 145 140 139 139 139 144 150 137 126 127 130 120 108 111 115 98 77 60 42 27 16 357 343 346 360 355 338 343 12 18 3 360 8 8 4 8 9 6 6 9 5 358 357 359 357 357 1 2 358 354 353 354 353 351 348 345
217 212 164 353 199 156 155 155 150 143 142 145 148 151 152 153 153 152 149 149 150 150 150 151 151 150 149 148 147 149 150 144 140 143 146 148 164 168 141 131 138 146 140 134 138 123 100 78 57 36 23 11 356 352 3 7 350 344 0 16 9 1 5 9 7 7 10 10 9 10 10 5 358 357 360 1 1 2 360 356 355 356 354 351 350 347 347
163 131 94 38 334 296 180 158 151 149 152 153 153 156 158 156 155 153 151 151 152 152 151 151 151 151 151 150 150 152 150 145 145 150 145 125 95 108 129 136 143 147 147 147 123 99 86 69 47 30 18 11 12 21 21 6 353 359 11 9 3 7 8 4 7 12 11 9 12 12 8 3 360 360 3 5 2 359 358 359 359 357 352 351 352 351 351
148 133 114 116 314 307 296 202 156 151 156 159 158 159 160 158 155 154 153 153 153 154 152 151 153 155 155 155 155 155 152 150 152 153 143 121 102 112 130 138 139 139 139 124 100 94 83 61 39 28 23 27 37 32 18 5 2 10 11 5 5 8 3 1 9 13 8 8 13 11 3 1 1 3 6 5 360 358 0 1 357 354 354 355 354 353 352
145 140 135 131 128 294 284 254 190 162 157 159 160 160 161 159 155 156 157 156 155 155 156 156 157 159 159 158 157 156 154 154 156 157 154 147 139 135 134 136 140 145 142 116 100 96 82 55 39 34 37 47 44 30 18 14 13 12 8 6 7 5 1 2 9 9 6 9 11 4 359 359 0 3 7 6 360 358 2 360 355 354 358 358 355 352 350
131 136 149 173 214 225 226 219 194 161 152 154 157 160 161 158 155 156 160 160 158 158 159 160 159 160 160 158 154 151 151 154 156 159 158 154 150 147 144 139 140 145 140 120 108 100 78 51 43 45 50 48 37 25 22 22 18 11 8 7 6 3 0 1 5 7 6 4 1 357 356 358 358 2 6 4 360 359 1 360 357 358 359 357 353 350 348
128 144 161 173 208 231 222 199 167 151 153 156 156 160 160 156 152 155 159 159 158 157 158 159 159 160 159 157 154 153 154 154 151 146 140 133 135 140 143 138 135 139 137 122 111 101 75 50 45 51 53 45 35 28 28 24 15 9 8 8 6 3 360 2 6 6 359 353 353 357 358 356 357 2 5 1 359 2 3 1 360 1 360 356 352 350 348
148 170 180 174 191 242 238 194 158 155 165 160 153 157 159 154 150 151 153 153 153 152 150 153 156 157 156 157 157 157 158 156 150 144 140 135 133 137 142 142 142 145 142 126 114 101 74 58 57 55 48 41 37 36 32 21 11 8 11 11 7 2 3 6 6 359 350 349 356 1 357 352 356 3 2 358 359 4 5 2 1 0 358 354 351 349 348
171 190 196 176 171 217 236 211 167 157 165 159 153 154 153 148 147 148 148 147 147 146 145 149 154 153 152 155 157 156 157 158 152 147 146 143 140 144 150 153 155 160 161 154 146 129 93 75 67 54 41 34 35 36 27 16 10 14 18 13 5 2 7 9 1 351 351 359 4 359 353 352 357 2 360 357 358 3 3 1 359 357 354 352 352 351 349
175 189 192 157 157 200 225 217 174 156 161 159 152 150 148 145 145 147 147 147 147 147 147 150 151 149 150 153 153 151 153 152 144 142 146 149 149 151 155 156 158 165 166 158 152 144 125 99 79 63 48 35 32 32 25 15 10 16 20 15 7 4 5 5 1 0 7 10 3 353 349 353 358 360 358 357 359 1 0 357 355 353 351 351 351 349 346
218 197 118 129 180 226 234 219 172 155 157 154 149 150 150 146 143 146 149 149 148 146 146 148 149 151 156 158 154 149 150 148 143 144 148 148 146 148 152 152 156 162 154 133 142 157 153 125 88 72 64 49 32 25 19 13 12 18 22 17 9 3 1 3 6 8 7 3 356 350 351 355 356 357 355 355 357 359 359 356 354 352 349 348 347 344 343
206 189 156 148 221 253 249 221 164 148 152 152 149 149 147 142 140 143 146 147 147 147 148 149 151 156 164 165 157 149 148 148 147 148 148 143 142 146 148 148 153 160 155 145 167 182 164 128 85 68 68 62 40 22 15 13 12 14 18 16 9 2 360 8 14 10 2 355 353 354 355 355 354 353 352 352 355 359 359 356 353 350 346 343 342 340 339